Regional Weather Roundup
Issued by NWS

Home | Current Version | Previous Version | Graphics & Text | Print | Product List | Glossary Off
Versions: 1 2 3 4 5 6 7 8 9 10 11 12 13 14 15 16 17 18 19 20 21 22 23 24 25 26 27 28 29 30 31 32 33 34 35 36 37 38 39 40 41 42 43 44 45 46 47 48

000
ASUS43 KDMX 042307
RWRIA

WEATHER ROUNDUP FOR IOWA
NATIONAL WEATHER SERVICE DES MOINES IA
600 PM CDT SAT JUL 04 2015

NOTE: "FAIR" INDICATES FEW OR NO CLOUDS BELOW 12,000 FEET WITH NO
SIGNIFICANT WEATHER AND/OR OBSTRUCTIONS TO VISIBILITY.

* - THESE STATIONS ARE NOT NWS STATIONS...THUS NOT UNDER NWS
QUALITY CONTROL.  THEY ALSO DO NOT REPORT WEATHER SUCH
AS PRECIPITATION OR FOG.

IAZ001>003-012>014-020>022-031>034-043>046-050000-
   NORTHWEST IOWA

CITY           SKY/WX    TMP DP  RH WIND       PRES   REMARKS
CARROLL *      SUNNY     81  59  47 S9        29.95S HX  81
CHEROKEE *     MOSUNNY   79  63  57 S10       29.93F HX  80
DENISON *      SUNNY     77  63  61 S8        29.93F
LE MARS *      SUNNY     81  66  61 S13       29.92F HX  83
ORANGE CITY *  SUNNY     79  63  57 S13       29.92F HX  80
SHELDON *      SUNNY     79  66  65 S13       29.91F HX  81
SIOUX CITY     MOSUNNY   82  64  54 S14       29.90F HX  83
SPENCER        SUNNY     81  57  43 S13       29.93F HX  81
STORM LAKE *   SUNNY     79  61  53 S7G14     29.95F HX  80
$$

IAZ055>058-069>071-079>083-090>094-050000-
   SOUTHWEST IOWA

CITY           SKY/WX    TMP DP  RH WIND       PRES   REMARKS
ATLANTIC *     SUNNY     81  61  50 S6        29.95F HX  81
AUDUBON *      SUNNY     81  61  50 S6        29.97S HX  81
CLARINDA *     SUNNY     81  61  50 SW8G15    29.96F HX  81
COUNCIL BLFS * SUNNY     79  63  57 S10       29.95F HX  80
CRESTON *      SUNNY     81  59  47 S10       29.97F HX  81
HARLAN  *      SUNNY     81  61  50 S13       29.98F HX  81
LAMONI         SUNNY     81  61  50 S7        29.97F HX  82
RED OAK *      SUNNY     81  61  50 S9        29.95F HX  81
SHENANDOAH *   SUNNY     81  64  57 S7        29.95F HX  82
$$

IAZ047>049-059>061-072>074-084-050000-
   CENTRAL IOWA

CITY           SKY/WX    TMP DP  RH WIND       PRES   REMARKS
AMES           SUNNY     79  60  52 S9        29.96F HX  80
ANKENY *       SUNNY     81  63  54 S7        29.95F HX  82
CHARITON *     SUNNY     79  61  53 S7        29.97F HX  80
DES MOINES     PTSUNNY   81  59  47 S8        29.95F HX  81
GRINNELL*      SUNNY     79  59  50 S5        29.98F HX  80
KNOXVILLE *    SUNNY     81  59  47 S7        29.96S HX  81
MARSHALLTOWN   SUNNY     78  60  53 S8        29.97S
PELLA *        SUNNY     82  64  54 S5        29.98S HX  84
PERRY *          N/A     81  59  47 S6        29.96S HX  81
$$

IAZ004>006-015-016-023>025-035-036-050000-
   NORTH CENTRAL IOWA

CITY           SKY/WX    TMP DP  RH WIND       PRES   REMARKS
ALGONA *       SUNNY     77  61  57 S9        29.96S
CLARION *      SUNNY     81  59  47 S10       29.96F HX  81
ESTHERVILLE    MOSUNNY   78  61  55 S9        29.93F HX  80
FORT DODGE *   MOSUNNY   81  61  50 S7        29.96F HX  81
MASON CITY     SUNNY     79  58  48 S9        29.98S HX  80
FOREST CITY *  SUNNY     77  55  47 S8        29.96F
IOWA FALLS *     N/A     79  61  53 S8        29.98F HX  80
$$

IAZ007>011-017>019-026>030-037>042-050>054-066-050000-
   NORTHEAST IOWA

CITY           SKY/WX    TMP DP  RH WIND       PRES   REMARKS
CEDAR RAPIDS   SUNNY     78  63  59 S5        29.97F HX  80
CHARLES CITY * SUNNY     77  63  61 S6        29.98S
CLINTON *      SUNNY     79  61  53 W6        30.01F HX  80
DECORAH *        N/A    N/A N/A N/A MISG        N/A
DUBUQUE        SUNNY     78  60  53 SW5       29.99F
MONTICELLO *   SUNNY     79  61  53 SW3       29.98S HX  80
OELWEIN *      SUNNY     79  61  53 SW7       29.99S HX  80
WATERLOO       SUNNY     80  61  52 SW7       29.96F HX  81
$$

IAZ064-065-067-068-078-050000-
   EAST CENTRAL IOWA

CITY           SKY/WX    TMP DP  RH WIND       PRES   REMARKS
DAVENPORT      SUNNY     78  60  53 W3        29.99F
IOWA CITY      SUNNY     79  61  53 SE6       29.98F HX  80
MT. PLEASANT * SUNNY     82  55  39 CALM      29.98S HX  82
MUSCATINE *    SUNNY     81  59  47 SE5       29.97F HX  81
QUAD CITIES    SUNNY     79  60  52 S3        29.97F HX  80
$$

IAZ062-063-075>077-085>089-095>099-050000-
   SOUTHEAST IOWA

CITY           SKY/WX    TMP DP  RH WIND       PRES   REMARKS
BURLINGTON     SUNNY     79  61  53 SE3       29.98F HX  80
FAIRFIELD *    SUNNY     79  61  53 CALM      29.98F HX  80
FORT MADISON * SUNNY     79  59  50 CALM      29.99F HX  80
KEOKUK *       SUNNY     79  61  53 CALM      29.97F HX  80
OSKALOOSA *      N/A     79  63  57 S3        29.98F HX  80
CENTERVILLE *  SUNNY     79  59  50 S5        29.99F HX  80
OTTUMWA        SUNNY     78  61  55 S3        29.96F HX  80
WASHINGTON *   SUNNY     79  63  57 S6        30.00S HX  80
$$

ABBREVIATIONS USED IN REMARKS
   TC - TEMPERATURES IN CELSIUS
  WCI - WIND CHILL INDEX
   HX - HEAT INDEX
  VSB - VISIBILITY
$$




USA.gov is the U.S. government's official web portal to all federal, state and local government web resources and services.